Время (UTC), дата Ветер
(°,м/с) 
Видим.   Явления Облачность Т
(°С)
Тd
(°С)
f(%) Тe
(°С)
Pmin
(гПа)
dP
(гПа)
Po
(мм)
O2
(г/м3)
Тmin Tmax R s Состояние
почвы
00 01.06.12 330 (СЗ) 4000 м  дымка{туман}  ясно 
+14.7 +12.5 87 +20  1013.4  753  286           
03 01.06.12 050 (СВ) 4000 м  дымка{туман}  3/0 верхняя 
[Ci fib]
+15.5 +12.8 84 +21  1013.5  0.2  754  285           
06 01.06.12 080 (В) 10 км    8/3 1000 м средняя 
[Cu hum|Ac trans]
+19.1 +14.2 73 +27  1014.2  0.8  754  281  +12.9         
09 01.06.12 350 (С) 10 км  слаб. ливневой дождь  8/6 1000 м кучево-дожд., средняя 
[Cb calv|Ac trans]
+20.5 +13.5 64 +27  1013.7  -0.4  754  280           
12 01.06.12 090 (В) 10 км  гроза без осадков{ливн. осадки}  8/6 1000 м кучево-дожд., средняя 
[Cb cap|Ac trans]
+20.9 +11.6 55 +24  1013.1  -0.6  753  280           
15 01.06.12 280 (З) 10 км  в посл. час ливневой дождь{гроза}  9/5 1000 м кучево-дожд., средняя 
[Cb calv|Ac trans]
+19.2 +15.3 78 +29  1013.5  0.3  754  280           
18 01.06.12 тихо ()   4000 м  местами туман поземный{гроза, ливн. осадки}  9/1 1000 м кучево-дожд., средняя 
[Cb calv|Ac trans]
+16 +14.5 91 +24  1014.3  0.6  754  284    +22.4     
21 01.06.12 тихо ()   4000 м  местами туман поземный  8/1 1000 м кучево-дожд., средняя, верхняя 
[Cb calv|Ac trans|Ci fib]
+15.1 +13.5 90 +21  1014.4  754  285           
00 02.06.12 210 (ЮЗ) 0300 м  туман  3/0 верхняя 
[Ci fib]
+13.5 +13 97 +19  1014.3  -0.1  754  287           
03 02.06.12 240 (ЮЗ) 2000 м  дымка{туман}  4/4 100 м кучево-дожд. 
[Cb calv]
+14.6 +13.7 94 +21  1013.9  -0.4  754  286           
06 02.06.12 250 (З) 10 км  {ливн. осадки, туман}  8/3 600 м кучево-дожд., средняя, верхняя 
[Cb calv|Ac trans|Ci fib]
+18.9 +15 78 +28  1014.1  0.4  754  281  +13.5         
09 02.06.12 250 (З) 10 км    6/4 1000 м верхняя 
[Cu hum|Ci fib]
+22 +7.3 39 +22  1014.2  0.1  754  280           
12 02.06.12 230 (ЮЗ) 10 км    6/6 1000 м кучево-дожд. 
[Cb calv]
+21.9 +13.3 58 +28  1013.4  -0.7  754  279           
15 02.06.12 250 (З) 10 км  гроза без осадков{ливн. осадки}  9/6 1000 м кучево-дожд., средняя 
[Cb cap|Ac trans]
+20.5 +12.8 61 +25  1013  -0.4  753  280           
18 02.06.12 230 (ЮЗ) 10  10 км  гроза, ливневой дождь  9/5 1000 м кучево-дожд., средняя 
[Cb calv|Ac trans]
+18.3 +14.6 79 +26  1013.6  0.5  754  282    +23.6  13     
21 02.06.12 300 (СЗ) 10 км  {гроза, ливн. осадки}  6/4 1000 м кучево-дожд., средняя 
[Cb calv|Ac trans]
+16.3 +13.9 86 +24  1015.4  1.8  755  284           
00 03.06.12 270 (З) 4000 м  дымка{гроза, ливн. осадки}  ясно 
+13.1 +11.4 89 +17  1017  1.3  756  289           
03 03.06.12 280 (З) 4000 м  дымка  5/0 средняя 
[Ac trans]
+14.7 +11.3 80 +18  1018.4  1.5  757  287           
06 03.06.12 250 (З) 10 км    3/0 средняя 
[Ac trans]
+19 +6.2 43 +20  1019.3  758  285  +12.7       
09 03.06.12 260 (З) 10 км    5/0 средняя 
[Ac trans]
+21.1 +6.2 38 +21  1018.7  -0.5  758  282           
12 03.06.12 230 (ЮЗ) 10 км    6/3 1000 м средняя 
[Cu med, cong|Ac trans]
+22.9 +9.1 41 +23  1017.5  -1  756  280           
15 03.06.12 250 (З) 10 км    9/1 1000 м кучево-дожд., средняя, верхняя 
[Cb calv|Ac trans|Ci fib]
+21.9 +9.6 45 +22  1016.9  -0.6  756  280           
18 03.06.12 300 (СЗ) 10 км    8/0 средняя 
[Ac trans]
+20 +11.8 59 +23  1017.4  0.5  757  282    +23       
21 03.06.12 тихо ()   10 км    5/0 средняя, верхняя 
[Ac trans|Ci fib]
+17.4 +14 80 +24  1016.9  -0.6  756  284           
00 04.06.12 230 (ЮЗ) 10 км    ясно 
+16.3 +14.4 89 +23  1016.1  -0.8  755  284           
03 04.06.12 220 (ЮЗ) 10 км    8/0 средняя, верхняя 
[Ac trans|Ci fib]
+16.3 +14.7 90 +24  1016.1  755  284           
06 04.06.12 240 (ЮЗ) 10 км    5/5 480 м 
[Sc]
+21.7 +17 75 +34  1016.4  0.4  756  278  +15.4         
09 04.06.12 230 (ЮЗ) 10 км    5/3 600 м верхняя 
[Cu hum|Ci fib]
+25.1 +15 53 +34  1015.8  -0.5  755  276           
12 04.06.12 220 (ЮЗ) 10 км    3/1 1000 м верхняя 
[Cu hum|Ci fib]
+26.6 +15.1 49 +35  1015  -0.7  755  274           
15 04.06.12 220 (ЮЗ) 10 км    ясно 
+26.2 +15.6 52 +36  1013.7  -1.3  754  274           
18 04.06.12 340 (С) 10 км    3/0 средняя 
[Ac trans]
+22.9 +14.4 59 +30  1014.2  0.4  754  277    +26.8       
21 04.06.12 320 (СЗ) 10 км    4/0 средняя 
[Ac trans]
+18.9 +14.3 75 +27  1013.6  -0.7  754  281           
00 05.06.12 360 (С) 10 км    4/0 средняя 
[Ac trans]
+18.1 +12.5 70 +24  1013  -0.7  753  282           
03 05.06.12 060 (СВ) 10 км    8/0 средняя, верхняя 
[Ac trans|Ci fib]
+18.3 +14.9 81 +27  1012.9  753  281           
06 05.06.12 090 (В) 10 км    8/0 средняя, верхняя 
[Ac trans|Ci fib]
+24.1 +16.9 64 +36  1011.6  -1.2  752  275  +15.9         
09 05.06.12 100 (В) 10 км    8/0 средняя, верхняя 
[Ac trans|Ci fib]
+28.2 +16.1 48 +39  1010.3  -1  751  271           
12 05.06.12 100 (В) 10 км    8/4 1000 м верхняя 
[Cu med, cong|Ci fib]
+29 +15.1 43 +38  1009.6  -0.7  751  270           
15 05.06.12 050 (СВ) 10 км    8/3 1000 м кучево-дожд., средняя, верхняя 
[Cb calv|Ac trans|Ci fib]
+28.3 +15.5 46 +38  1008.5  -1  750  271           
18 05.06.12 030 (СВ) 10 км  {ливн. осадки}  9/4 1000 м кучево-дожд., средняя 
[Cb calv|Ac trans]
+27 +13.8 44 +34  1007.1  -1.4  749  272    +29.6       
21 05.06.12 080 (В) 10 км    9/3 1000 м кучево-дожд., средняя 
[Cb calv|Ac trans]
+24.2 +11.4 45 +27  1006.7  -0.5  749  275           
00 06.06.12 080 (В) 10 км  зарница  9/3 1000 м кучево-дожд., средняя, верхняя 
[Cb cap|Ac trans|Ci fib]
+20.1 +12.1 60 +24  1005.9  -0.8  748  278           
03 06.06.12 240 (ЮЗ) 10 км    9/4 1000 м кучево-дожд., средняя 
[Cb calv|Ac trans]
+20.4 +17 81 +33  1006.2  0.3  748  277           
06 06.06.12 170 (Ю) 10 км  {ливн. осадки}  6/5 900 м кучево-дожд., средняя 
[Cb calv|Ac trans]
+22.4 +17.6 74 +36  1006.7  0.4  749  275  +19    0.0     
09 06.06.12 200 (Ю) 10 км    8/5 1000 м средняя, верхняя 
[Cu med, cong|Ac trans|Ci fib]
+25.3 +17 60 +38  1006.3  -0.3  748  272           
12 06.06.12 270 (З) 10 км    8/4 1000 м кучево-дожд., средняя 
[Cb calv|Ac trans]
+24.5 +14.8 55 +33  1005.8  -0.4  748  274           
15 06.06.12 280 (З) 10 км    6/3 1000 м кучево-дожд., средняя, верхняя 
[Cb calv|Ac trans|Ci fib]
+24.7 +16.1 59 +35  1005.3  -0.4  748  273           
18 06.06.12 270 (З) 10 км    4/0 средняя 
[Ac trans]
+21.5 +15.4 68 +31  1005.6  0.2  748  276    +26.1  0.0     
21 06.06.12 260 (З) 10 км    4/0 средняя 
[Ac trans]
+18.9 +15.9 83 +30  1005.2  -0.3  747  278           
00 07.06.12 240 (ЮЗ) 4000 м  дымка  3/0 средняя 
[Ac trans]
+17.7 +16.1 90 +30  1005.4  0.1  748  279           
03 07.06.12 270 (З) 10 км    5/0 средняя 
[Ac trans]
+19.4 +17.8 90 +35  1005.3  748  277           
06 07.06.12 220 (ЮЗ) 10 км  дымка  8/0 средняя, верхняя 
[Ac trans|Ci fib]
+22.7 +19 80 +39  1006  0.8  748  274  +16.7         
09 07.06.12 220 (ЮЗ) 10 км  слаб. ливневой дождь со снегом  9/3 1000 м кучево-дожд., средняя, верхняя 
[Cb calv|Ac trans|Ci fib]
+22.4 +17.2 72 +35  1006.6  0.5  749  275           
12 07.06.12 250 (З) 10 км  {ливн. осадки}  9/3 1000 м кучево-дожд., средняя 
[Cb calv|Ac trans]
+24.7 +18.6 69 +40  1005.7  -0.7  748  272           
15 07.06.12 260 (З) 10 км    9/4 1000 м кучево-дожд., средняя 
[Cb calv|Ac trans]
+23.9 +16.4 63 +35  1005.8  0.1  748  274           
18 07.06.12 230 (ЮЗ) 10 км  в посл. час ливневой дождь  6/3 600 м кучево-дожд., средняя 
[Cb calv|Ac trans]
+18.9 +16 83 +30  1006.9  0.9  749  279    +25.2  0.0     
21 07.06.12 250 (З) 10 км    8/4 300 м средняя 
[Sc|Ac trans]
+18 +16 88 +29  1006.9  749  280           
00 08.06.12 250 (З) 4000 м  дымка  8/8 120 м кучево-дожд. 
[Cb calv]
+17.8 +16.6 93 +30  1007.3  0.4  749  280           
03 08.06.12 240 (ЮЗ) 10 км  в посл. час ливневой дождь  6/3 1000 м кучево-дожд., средняя 
[Cb calv|Ac trans]
+17.3 +15.5 89 +28  1007.8  0.4  749  281           
06 08.06.12 300 (СЗ) 10 км  {ливн. осадки}  9/6 450 м средняя 
[Sc diur, vesp|Ac trans]
+19.7 +15.5 77 +31  1009.7  1.8  751  279  +17.3       
09 08.06.12 290 (З) 10 км    6/6 800 м 
[Cu hum]
+21.5 +12.8 58 +27  1010.9  1.1  752  278           
12 08.06.12 300 (СЗ) 10 км    4/4 1000 м 
[Cu hum]
+24 +9.4 40 +24  1011.6  0.9  752  277           
15 08.06.12 300 (СЗ) 10 км    3/0 средняя 
[Ac trans]
+24.3 +8.9 38 +24  1012.3  0.6  753  277           
18 08.06.12 260 (З) 10 км    4/0 средняя 
[Ac trans]
+20.5 +15 71 +29  1014.4  754  280    +24.5       
21 08.06.12 260 (З) 10 км    3/0 средняя 
[Ac trans]
+19.9 +15.4 75 +30  1015.3  0.7  755  280           
00 09.06.12 240 (ЮЗ) 10 км    3/0 средняя 
[Ac trans]
+15.9 +14.6 92 +24  1015.9  0.6  755  285           
03 09.06.12 230 (ЮЗ) 10 км    ясно 
+17.7 +15.7 88 +28  1016.9  756  283           
06 09.06.12 230 (ЮЗ) 10 км    8/1 600 м средняя 
[Cu hum|Ac trans]
+22.9 +18.4 76 +38  1017.9  1.2  757  277  +15.6         
09 09.06.12 240 (ЮЗ) 10 км    4/4 1000 м 
[Cu hum]
+26 +15.5 52 +35  1018  0.1  757  275           
12 09.06.12 260 (З) 10 км    5/4 1000 м средняя 
[Cu med, cong|Ac trans]
+27.1 +14.5 46 +35  1018  -0.1  757  275           
15 09.06.12 270 (З) 10 км    3/0 средняя 
[Ac trans]
+25.8 +11.8 42 +29  1017.9  -0.1  757  277           
18 09.06.12 260 (З) 10 км    4/0 средняя 
[Ac trans]
+22.5 +14.1 59 +29  1018.8  0.8  758  279    +27.3       
21 09.06.12 280 (З) 10 км    ясно 
+21.3 +15.7 70 +31  1019  0.1  758  280           
00 10.06.12 310 (СЗ) 10 км    ясно 
+20.4 +15.9 75 +30  1019.2  0.1  758  281           
03 10.06.12 тихо ()   4000 м  дымка  1/0 средняя 
[Ac trans]
+19.5 +16.2 81 +30  1019.8  0.5  758  282           
06 10.06.12 170 (Ю) 10 км    ясно 
+24.8 +15.4 56 +34  1019.5  -0.1  758  277  +17         
09 10.06.12 190 (Ю) 10 км    1/1 1000 м 
[Cu hum]
+28.2 +12.7 38 +33  1018.8  -0.5  758  274           
12 10.06.12 160 (Ю) 10 км    1/1 1000 м 
[Cu hum]
+29.2 +12.5 36 +34  1017.2  -1.5  757  273           
15 10.06.12 150 (ЮВ) 10 км    3/0 верхняя 
[Ci fib]
+28.6 +12.4 37 +33  1015.6  -1.6  755  273           
18 10.06.12 020 (С) 10 км    ясно 
+24 +12.9 50 +29  1015.3  -0.4  755  277    +29.9       
21 10.06.12 010 (С) 10 км    ясно 
+20.7 +13.5 63 +27  1014.5  -0.8  754  280           
00 11.06.12 тихо ()   10 км    3/0 средняя 
[Ac trans]
+19.3 +13.5 69 +25  1014.2  -0.4  754  281           
03 11.06.12 080 (В) 10 км    ясно 
+20.5 +15.8 74 +30  1014  -0.2  754  279           
06 11.06.12 090 (В) 10 км    ясно 
+26.7 +16.4 53 +38  1013.2  -0.6  754  273  +18         
09 11.06.12 110 (В) 10 км    ясно 
+30.3 +15.7 41 +40  1012  -1  753  270           
12 11.06.12 080 (В) 10 км    ясно 
+31.7 +15.1 37 +40  1010.2  -1.7  751  268           
15 11.06.12 080 (В) 10 км    ясно 
+30.6 +14 36 +38  1009.3  -0.9  751  269           
18 11.06.12 080 (В) 10 км    ясно 
+24.9 +15 54 +34  1009  -0.4  750  274    +31.7       
21 11.06.12 080 (В) 10 км    ясно 
+23 +15.1 61 +32  1008.3  -0.8  750  276           
00 12.06.12 070 (В) 10 км    ясно 
+20.1 +13.2 64 +26  1008.6  0.3  750  279           
03 12.06.12 090 (В) 10 км    ясно 
+21.3 +16.2 73 +32  1008.1  -0.4  750  277           
06 12.06.12 110 (В) 10 км    ясно 
+26.7 +17.9 59 +41  1008.5  0.5  750  271  +18.6         
09 12.06.12 140 (ЮВ) 10 км    ясно 
+31.1 +14.4 36 +39  1007.9  -0.4  750  268           
12 12.06.12 140 (ЮВ) 10 км    4/0 средняя, верхняя 
[Ac trans|Ci fib]
+32.5 +16.2 38 +43  1007.5  -0.4  749  266           
15 12.06.12 160 (Ю) 10 км    5/0 средняя 
[Ac trans]
+32.3 +15.4 36 +42  1007  -0.5  749  267           
18 12.06.12 250 (З) 10 км    ясно 
+27.1 +17.3 55 +40  1008  0.9  750  271    +33       
21 12.06.12 280 (З) 10 км    ясно 
+25.1 +20 73 +44  1009.1  750  272           
00 13.06.12 290 (З) 10 км    ясно 
+23.7 +17.3 67 +37  1009.5  0.3  751  275           
03 13.06.12 270 (З) 10 км    ясно 
+23.6 +18 71 +38  1010.2  0.2  751  275           
06 13.06.12 210 (ЮЗ) 10 км    ясно 
+27.1 +20.6 68 +47  1011.1  1.2  752  271  +22.1         
09 13.06.12 220 (ЮЗ) 10 км    4/3 1000 м средняя 
[Cu hum|Ac trans]
+30.4 +20.5 55 +50  1010.9  -0.1  752  268           
12 13.06.12 230 (ЮЗ) 10 км    5/5 1000 м 
[Cu hum]
+31.5 +19.2 48 +48  1010.4  -0.4  752  267           
15 13.06.12 290 (З) 10 км    ясно 
+30.2 +21 58 +51  1010.2  -0.3  751  267           
18 13.06.12 290 (З) 10 км    ясно 
+26.7 +18.1 59 +41  1011.2  0.8  752  272    +31.9       
21 13.06.12 310 (СЗ) 10 км    ясно 
+24.5 +16.2 60 +35  1011.3  752  275           
00 14.06.12 060 (СВ) 10 км    ясно 
+19.3 +13.7 70 +27  1012  0.4  752  280           
03 14.06.12 090 (В) 10 км    ясно 
+22 +16.9 73 +34  1012.7  0.8  753  277           
06 14.06.12 070 (В) 10 км    ясно 
+29 +14.1 40 +36  1012.8  0.3  753  272  +18.3         
09 14.06.12 тихо ()   10 км    ясно 
+32.5 +16.4 38 +44  1011.7  -1  753  268           
12 14.06.12 060 (СВ) 10 км    ясно 
+34.7 +18.4 38 +50  1010.4  -1.1  752  265           
15 14.06.12 010 (С) 10 км    ясно 
+34.6 +17 35 +47  1009.1  -1.3  751  265           
18 14.06.12 030 (СВ) 10 км    3/0 средняя 
[Ac trans]
+31.5 +16.9 42 +44  1009  -0.2  751  268    +35.5       
21 14.06.12 020 (С) 10 км    3/0 средняя 
[Ac trans]
+29.7 +15.1 41 +39  1008.1  -1  750  269           
00 15.06.12 060 (СВ) 10 км  зарница  5/1 1000 м кучево-дожд., средняя 
[Cb calv|Ac trans]
+27.5 +10.5 35 +29  1007.4  -0.6  749  272           
03 15.06.12 020 (С) 10 км    8/1 1000 м кучево-дожд., средняя, верхняя 
[Cb calv|Ac trans|Ci fib]
+25.9 +11.6 41 +29  1007.8  0.2  749  274           
06 15.06.12 050 (СВ) 10 км    8/1 1000 м кучево-дожд., средняя, верхняя 
[Cb calv|Ac trans|Ci fib]
+27.8 +15.6 47 +38  1008.6  0.9  750  271  +24         
09 15.06.12 110 (В) 10 км    9/1 1000 м кучево-дожд., средняя 
[Cb calv|Ac trans]
+29.2 +16.6 47 +41  1009.7  1.1  751  270           
12 15.06.12 370 () 10 км    9/4 1000 м кучево-дожд., средняя, верхняя 
[Cb calv|Ac trans|Ci fib]
+30.3 +15.6 41 +40  1009.4  -0.3  751  269           
15 15.06.12 170 (Ю) 10 км  в посл. час ливневой дождь  9/5 1200 м кучево-дожд., средняя, верхняя 
[Cb calv|Ac trans|Ci fib]
+30.4 +16.9 44 +43  1009.1  -0.3  751  268           
18 15.06.12 280 (З) 10 км  {ливн. осадки}  6/1 1000 м кучево-дожд., средняя, верхняя 
[Cb calv|Ac trans|Ci fib]
+27.8 +17.7 54 +41  1009.9  0.8  751  271    +31.4  0.0     
21 15.06.12 330 (СЗ) 10 км    6/3 1000 м кучево-дожд., средняя, верхняя 
[Cb calv|Ac trans|Ci fib]
+24.7 +17.8 65 +39  1010  751  274           
00 16.06.12 тихо ()   10 км    6/1 1000 м кучево-дожд., средняя 
[Cb calv|Ac trans]
+22.3 +16.5 70 +34  1010.5  0.3  751  276           
03 16.06.12 280 (З) 10 км    8/0 средняя, верхняя 
[Ac trans|Ci fib]
+21.6 +15.6 69 +31  1011.1  0.7  752  277           
06 16.06.12 280 (З) 10 км    6/1 1000 м кучево-дожд., средняя 
[Cb calv|Ac trans]
+22.5 +16.5 69 +34  1012  0.8  753  277  +20.5         
09 16.06.12 260 (З) 10 км    6/4 1000 м средняя, верхняя 
[Cu hum|Ac trans|Ci fib]
+26.9 +10.3 35 +28  1012.9  0.9  753  275           
12 16.06.12 260 (З) 10 км    6/4 1000 м верхняя 
[Cu hum|Ci fib]
+27.5 +10 33 +29  1012.3  -0.5  753  274           
15 16.06.12 260 (З) 10  10 км    6/4 1000 м средняя 
[Cu hum|Ac trans]
+24.8 +11.9 45 +28  1012.1  -0.2  753  276           
18 16.06.12 300 (СЗ) 10 км    6/5 300 м кучево-дожд., средняя 
[Cb calv|Ac trans]
+22.1 +8 40 +22  1013.2  0.9  753  280    +27.5       
21 16.06.12 280 (З) 10 км    6/4 1000 м кучево-дожд., средняя 
[Cb calv|Ac trans]
+17.6 +7 50 +18  1013.7  0.3  754  284           
00 17.06.12 270 (З) 10 км  в посл. час ливневой дождь  9/5 1000 м кучево-дожд., средняя 
[Cb calv|Ac trans]
+15.2 +11.8 80 +19  1012.6  -1  753  285           
03 17.06.12 260 (З) 4000 м  слаб. ливневой дождь  9/6 240 м кучево-дожд., средняя 
[Cb calv|Ac trans]
+14.7 +13.3 91 +21  1011.3  -1.3  752  285           
06 17.06.12 300 (СЗ) 10 км  {ливн. осадки}  8/6 300 м кучево-дожд., средняя 
[Cb calv|Ac trans]
+19.3 +13.7 70 +25  1011.3  0.1  752  280  +13.9       
09 17.06.12 300 (СЗ) 10 км  в посл. час ливневой дождь  9/6 1000 м кучево-дожд., средняя 
[Cb calv|Ac trans]
+20.7 +15.1 70 +29  1012.3  0.9  753  279           
12 17.06.12 320 (СЗ) 10 км  {ливн. осадки}  9/6 900 м кучево-дожд., средняя 
[Cb calv|Ac trans]
+21 +14.9 68 +29  1013.3  753  279           
15 17.06.12 320 (СЗ) 10 км    8/6 900 м кучево-дожд., средняя, верхняя 
[Cb calv|Ac trans|Ci fib]
+22.7 +14.9 61 +31  1013  -0.3  753  277           
18 17.06.12 320 (СЗ) 10 км    8/3 1000 м кучево-дожд., средняя 
[Cb calv|Ac trans]
+20.9 +14.9 69 +29  1014.1  754  279    +22.7  0.0     
21 17.06.12 330 (СЗ) 10 км    5/0 средняя 
[Ac trans]
+20.1 +14.7 71 +28  1013.9  -0.1  754  280           
00 18.06.12 330 (СЗ) 10 км    4/0 средняя 
[Ac trans]
+18.3 +14.1 76 +25  1014.7  0.6  754  282           
03 18.06.12 340 (С) 10 км    3/0 средняя 
[Ac trans]
+18.5 +13.8 74 +25  1015.5  0.8  755  282           
06 18.06.12 340 (С) 10 км    1/1 1000 м 
[Cu hum]
+23.4 +15 59 +32  1015.9  0.6  755  277  +17.6         
09 18.06.12 350 (С) 10 км    5/5 1080 м 
[Cu hum]
+27.2 +13.4 43 +33  1015.9  0.1  756  274           
12 18.06.12 350 (С) 10 км    3/3 1000 м 
[Cu hum]
+29.3 +11.4 33 +32  1015.4  -0.5  755  273           
15 18.06.12 340 (С) 10 км    ясно 
+29.4 +12.2 35 +33  1015.3  -0.1  755  272           
18 18.06.12 320 (СЗ) 10 км    3/0 средняя 
[Ac trans]
+25.5 +16.1 56 +36  1016.3  0.9  756  275    +29.8       
21 18.06.12 320 (СЗ) 10 км    ясно 
+23.8 +16.4 63 +35  1016.4  0.1  756  277           
00 19.06.12 350 (С) 10 км    3/0 средняя 
[Ac trans]
+21.6 +15.1 66 +30  1016.6  0.1  756  279           
03 19.06.12 350 (С) 10 км    ясно 
+19.4 +12.3 63 +24  1017.3  0.6  756  282           
06 19.06.12 360 (С) 10 км    ясно 
+24 +12.6 49 +29  1017.3  0.1  757  278  +19.1         
09 19.06.12 360 (С) 10 км    ясно 
+26.7 +9.2 33 +27  1017  -0.3  756  276           
12 19.06.12 340 (С) 10 км    ясно 
+28.5 +4.7 22 +29  1015.8  -1.1  755  275           
15 19.06.12 350 (С) 10 км    ясно 
+28.2 +7.6 27 +28  1015.3  -0.3  755  275           
18 19.06.12 350 (С) 10 км    ясно 
+23.1 +9.2 41 +23  1016.1  0.5  756  279    +29       
21 19.06.12 360 (С) 10 км    ясно 
+21 +10 49 +22  1016.1  -0.1  756  281           
00 20.06.12 360 (С) 10 км    ясно 
+18.7 +9.9 57 +20  1016.3  0.1  756  283           
03 20.06.12 040 (СВ) 10 км    3/0 верхняя 
[Ci fib]
+20 +10.9 56 +22  1016.1  -0.1  756  282           
06 20.06.12 090 (В) 10 км    3/0 верхняя 
[Ci fib]
+24.4 +11 43 +27  1015.5  -0.5  755  277  +18         
09 20.06.12 350 (С) 10 км    3/0 верхняя 
[Ci fib]
+26.4 +9.7 35 +27  1014.6  -0.8  755  276           
12 20.06.12 340 (С) 10 км    3/0 верхняя 
[Ci fib]
+28.9 +9.3 29 +29  1013.3  -1.2  754  273           
15 20.06.12 300 (СЗ) 10 км    4/1 1000 м средняя 
[Cu hum|Ac trans]
+28.6 +13.8 40 +35  1011.9  -1.3  753  272           
18 20.06.12 320 (СЗ) 10 км    8/3 1000 м кучево-дожд., средняя 
[Cb calv|Ac trans]
+25.3 +14.9 53 +34  1012.1  753  275    +30       
21 20.06.12 290 (З) 10 км    6/3 1000 м кучево-дожд., средняя 
[Cb calv|Ac trans]
+21.2 +15.9 72 +31  1011.5  -0.6  752  278           
00 21.06.12 320 (СЗ) 10 км    6/1 1000 м кучево-дожд., средняя 
[Cb calv|Ac trans]
+21.8 +14.7 64 +30  1011.2  -0.2  752  278           
03 21.06.12 330 (СЗ) 10 км    3/0 средняя 
[Ac trans]
+22.4 +15.5 65 +32  1010.9  -0.3  752  277           
06 21.06.12 360 (С) 10 км    ясно 
+27.9 +16.6 50 +39  1010.4  -0.3  752  271  +20.9         
09 21.06.12 290 (З) 10 км    8/5 1500 м кучево-дожд., верхняя 
[Cb calv|Ci]
+29.8 +16.8 46 +42  1009.8  -0.5  751  269           
12 21.06.12 330 (СЗ) 10 км  гроза, ливневой дождь  9/6 1300 м кучево-дожд., верхняя 
[Cb cap|Ci]
+23.7 +19.5 77 +41  1009.2  -0.7  751  274           
15 21.06.12 050 (СВ) 10 км  {гроза, ливн. осадки}  8/4 1000 м кучево-дожд., верхняя 
[Cb calv|Ci fib]
+27.7 +19.4 61 +45  1008.4  -0.6  750  270           
18 21.06.12 330 (СЗ) 10 км  {гроза, ливн. осадки}  8/4 1000 м кучево-дожд., верхняя 
[Cb calv|Ci fib]
+24.5 +18.4 69 +40  1009.2  0.6  751  273    +30.6  39     
21 21.06.12 360 (С) 10 км    8/0 средняя, верхняя 
[Ac trans|Ci fib]
+23.1 +14 57 +30  1009.5  0.2  751  276           
00 22.06.12 010 (С) 10 км    8/0 средняя, верхняя 
[Ac trans|Ci fib]
+21.7 +12.5 56 +26  1009.7  0.2  751  278           
03 22.06.12 040 (СВ) 10 км    6/0 средняя 
[Ac trans]
+21 +14.1 65 +28  1010.6  0.9  752  278           
06 22.06.12 050 (СВ) 10 км    4/0 средняя, верхняя 
[Ac trans|Ci fib]
+25.9 +17.3 59 +39  1011.3  0.6  752  273  +20.5         
09 22.06.12 030 (СВ) 10 км    5/5 <0100 м 
[Cu hum]
+28.7 +12.4 37 +33  1011.5  0.3  752  272           
12 22.06.12 040 (СВ) 10 км    1/1 1000 м 
[Cu hum]
+30.2 +10.2 29 +32  1011.3  -0.2  752  271           
15 22.06.12 360 (С) 10 км    ясно 
+30.3 +10.2 29 +32  1011.1  -0.1  752  271           
18 22.06.12 350 (С) 10 км    ясно 
+25.8 +8.5 33 +26  1012.3  1.1  753  276    +30.7       
21 22.06.12 360 (С) 10 км    ясно 
+23.2 +9.8 43 +24  1012.9  0.4  753  278           
00 23.06.12 030 (СВ) 10 км    1/0 верхняя 
[Ci fib]
+21.5 +8.4 43 +22  1013.5  0.5  754  280           
03 23.06.12 060 (СВ) 10 км    ясно 
+20 +10.1 53 +21  1014.4  0.8  754  281           
06 23.06.12 070 (В) 10 км    ясно 
+24.8 +13.3 49 +31  1015.4  1.1  755  276  +18         
09 23.06.12 060 (СВ) 10 км    3/0 верхняя 
[Ci fib]
+28.2 +12 37 +32  1015.2  -0.1  755  274           
12 23.06.12 070 (В) 10 км    ясно 
+29.3 +10.7 32 +31  1014.8  -0.2  755  273           
15 23.06.12 110 (В) 10 км    ясно 
+28.9 +10.7 32 +31  1014.2  -0.6  754  273           
18 23.06.12 тихо ()   10 км    3/0 средняя, верхняя 
[Ac trans|Ci fib]
+24.9 +11.4 43 +28  1014.8  0.5  755  277    +30.2       
21 23.06.12 340 (С) 10 км    ясно 
+23.2 +11.8 49 +27  1014.7  -0.1  755  278           
00 24.06.12 040 (СВ) 10 км    3/0 средняя 
[Ac trans]
+18.8 +11.9 64 +24  1014.8  -0.1  755  282           
03 24.06.12 090 (В) 10 км    5/0 средняя, верхняя 
[Ac trans|Ci fib]
+21.8 +10.3 48 +23  1014.7  755  280           
06 24.06.12 170 (Ю) 10 км    5/0 средняя 
[Ac trans]
+26.5 +12.2 41 +31  1014.2  -0.3  754  275  +18.3         
09 24.06.12 190 (Ю) 10 км    1/0 средняя 
[Ac trans]
+30.6 +13.3 35 +36  1013.2  -0.8  754  271           
12 24.06.12 210 (ЮЗ) 10 км    1/1 1000 м 
[Cu hum]
+31.4 +12.5 31 +36  1011.8  -1.4  753  270           
15 24.06.12 280 (З) 10 км    8/1 1000 м кучево-дожд., верхняя 
[Cb calv|Ci fib]
+29.2 +12.2 35 +33  1011.8  753  272           
18 24.06.12 060 (СВ) 10 км    8/1 1000 м кучево-дожд., средняя 
[Cb calv|Ac trans]
+23.3 +17.7 71 +37  1012.2  0.2  753  275    +32.1       
21 24.06.12 310 (СЗ) 10 км    6/0 средняя 
[Ac trans]
+21.1 +17.4 79 +34  1012.1  -0.1  753  278           
00 25.06.12 060 (СВ) 10 км    6/0 средняя 
[Ac trans]
+19.3 +16.4 83 +31  1012.2  753  280           
03 25.06.12 360 (С) 10 км    6/0 средняя, верхняя 
[Ac trans|Ci fib]
+20.8 +16.7 77 +32  1012.2  753  278           
06 25.06.12 060 (СВ) 10 км    3/0 верхняя 
[Ci fib]
+25.8 +17.6 61 +39  1012  0.1  753  273  +18.7         
09 25.06.12 340 (С) 10 км    3/0 верхняя 
[Ci fib]
+29.7 +17.5 48 +43  1011.4  -0.5  752  270           
12 25.06.12 180 (Ю) 10 км    8/4 1000 м верхняя 
[Cu med, cong|Ci fib]
+32 +15.8 38 +42  1010.5  -0.8  752  268           
15 25.06.12 320 (СЗ) 10 км    8/3 1000 м верхняя 
[Cu med, cong|Ci fib]
+31.6 +13.1 32 +37  1009.8  -0.6  751  269           
18 25.06.12 350 (С) 10 км    4/0 верхняя 
[Ci fib]
+27.4 +16.7 52 +39  1010.4  0.3  751  272    +32.9       
21 25.06.12 040 (СВ) 10 км    4/0 верхняя 
[Ci fib]
+24.5 +16.5 61 +36  1010.1  -0.2  751  274           
00 26.06.12 060 (СВ) 10 км    3/0 верхняя 
[Ci fib]
+23.1 +14.4 58 +31  1009.4  -0.7  751  276           
03 26.06.12 090 (В) 10 км    5/0 средняя, верхняя 
[Ac trans|Ci fib]
+22.7 +14.9 61 +31  1009.6  0.1  751  276           
06 26.06.12 110 (В) 10 км    5/0 средняя, верхняя 
[Ac trans|Ci fib]
+28.4 +15.8 46 +38  1009.4  751  271  +22.1         
09 26.06.12 150 (ЮВ) 10 км    8/0 кучево-дожд., верхняя 
[Cb calv|Ci fib]
+31.8 +14.9 36 +40  1008.8  -0.5  750  268           
12 26.06.12 160 (Ю) 10 км    5/1 1000 м средняя, верхняя 
[Cu hum|Ac trans|Ci fib]
+33.5 +11 25 +36  1007.5  -1.3  749  267           
15 26.06.12 180 (Ю) 10 км    5/1 1000 м верхняя 
[Cu hum|Ci fib]
+30.8 +11.8 31 +34  1006.9  -0.5  749  269           
18 26.06.12 270 (З) 10 км    6/1 1000 м кучево-дожд., средняя, верхняя 
[Cb calv|Ac trans|Ci fib]
+28 +15.7 47 +38  1007.7  0.6  749  271    +33.7       
21 26.06.12 280 (З) 10 км    4/0 средняя, верхняя 
[Ac trans|Ci fib]
+26.2 +16.1 54 +37  1007.2  -0.6  749  272           
00 27.06.12 тихо ()   10 км    5/0 верхняя 
[Ci fib]
+24.5 +18.5 69 +40  1006.9  -0.3  749  273           
03 27.06.12 330 (СЗ) 10 км    8/1 1000 м кучево-дожд., средняя, верхняя 
[Cb calv|Ac trans|Ci fib]
+22.6 +16.6 69 +34  1007.7  0.7  749  275           
06 27.06.12 340 (С) 10 км    8/0 средняя, верхняя 
[Ac trans|Ci fib]
+25.2 +17.8 64 +39  1007.8  0.1  749  272  +21.6         
09 27.06.12 300 (СЗ) 10 км    9/1 1000 м кучево-дожд., средняя 
[Cb calv|Ac trans]
+26.6 +16.5 54 +38  1008.3  0.5  750  272           
12 27.06.12 320 (СЗ) 10 км    9/1 1000 м кучево-дожд., средняя, верхняя 
[Cb calv|Ac trans|Ci fib]
+25.4 +15.8 55 +35  1008.2  -0.1  750  273           
15 27.06.12 340 (С) 10 км    8/1 1000 м кучево-дожд., средняя, верхняя 
[Cb calv|Ac trans|Ci fib]
+23.6 +14.1 55 +31  1008.8  0.5  750  275           
18 27.06.12 340 (С) 10 км    9/3 1000 м кучево-дожд., средняя 
[Cb calv|Ac trans]
+21.3 +9.3 46 +22  1009.3  0.5  751  279    +28.2       
21 27.06.12 340 (С) 10 км    9/1 1000 м кучево-дожд., средняя 
[Cb calv|Ac trans]
+19.7 +9.4 51 +21  1009.9  0.4  751  281           
00 28.06.12 340 (С) 10 км    8/0 средняя 
[Ac trans]
+18.1 +11.5 65 +22  1009.7  -0.1  751  282           
03 28.06.12 330 (СЗ) 10 км    9/0 средняя 
[Ac trans]
+17.6 +10.9 65 +20  1010.2  0.3  751  282           
06 28.06.12 350 (С) 10 км    8/0 средняя, верхняя 
[Ac trans|Ci fib]
+19.4 +12.1 63 +24  1010.8  0.7  752  280  +17.6         
09 28.06.12 340 (С) 10 км    9/5 900 м средняя 
[Cu hum|Ac trans]
+22.9 +8.7 40 +23  1010.9  0.1  752  278           
12 28.06.12 350 (С) 10 км    9/6 1000 м средняя 
[Cu med, cong|Ac trans]
+23.9 +7.1 34 +24  1010.6  -0.2  752  277           
15 28.06.12 350 (С) 10 км    8/4 1000 м средняя 
[Cu hum|Ac trans]
+24.1 +7.7 35 +24  1010.2  -0.4  751  277           
18 28.06.12 260 (З) 10 км    9/0 средняя, верхняя 
[Ac trans|Ci fib]
+21.1 +11.8 55 +25  1011.3  752  279    +24.8       
21 28.06.12 340 (С) 10 км    9/0 средняя, верхняя 
[Ac trans|Ci fib]
+19.2 +8 48 +20  1011.2  -0.1  752  282           
00 29.06.12 310 (СЗ) 10 км    8/0 средняя 
[Ac trans]
+17.7 +8.3 54 +19  1011.6  0.3  752  283           
03 29.06.12 320 (СЗ) 10 км    4/0 средняя, верхняя 
[Ac trans|Ci fib]
+16.1 +9.1 63 +17  1012  0.3  752  285           
06 29.06.12 360 (С) 10 км    5/1 1000 м средняя, верхняя 
[Cu med, cong|Ac trans|Ci fib]
+22.2 +9.4 44 +23  1012.7  0.9  753  279  +15.6         
09 29.06.12 340 (С) 10 км    6/6 1300 м 
[Cu med, cong]
+24.7 +6.6 31 +25  1012.3  -0.3  753  277           
12 29.06.12 290 (З) 10 км    6/6 1300 м 
[Cu med, cong]
+25.7 +7.3 31 +26  1012  -0.2  753  276           
15 29.06.12 280 (З) 10 км    8/4 1000 м кучево-дожд., средняя 
[Cb calv|Ac trans]
+24.8 +8.7 36 +25  1012.2  0.1  753  277           
18 29.06.12 320 (СЗ) 10 км  в посл. час ливневой дождь  9/5 1000 м кучево-дожд., средняя 
[Cb calv|Ac trans]
+20.9 +11.3 54 +24  1013.4  754  280    +26.4       
21 29.06.12 320 (СЗ) 10 км    9/1 1000 м кучево-дожд., средняя 
[Cb calv|Ac trans]
+19.9 +10.1 53 +22  1013.6  0.1  754  281           
00 30.06.12 330 (СЗ) 10 км    9/3 300 м средняя 
[Sc diur, vesp|Ac trans]
+18.9 +10.3 57 +21  1013.6  754  282           
03 30.06.12 020 (С) 10 км    8/0 средняя 
[Ac trans]
+18.7 +8.6 52 +19  1014.2  0.5  754  283           
06 30.06.12 070 (В) 10 км    8/0 средняя, верхняя 
[Ac trans|Ci fib]
+22.9 +9.4 42 +23  1014.3  0.4  754  279  +18.2    0.0     
09 30.06.12 340 (С) 10 км    8/6 1200 м кучево-дожд., средняя 
[Cb calv|Ac trans]
+23.8 +6.8 34 +24  1013.6  -0.7  754  278           
12 30.06.12 220 (ЮЗ) 10 км    9/6 1200 м кучево-дожд., средняя 
[Cb calv|Ac trans]
+23.2 +10.8 46 +25  1013.5  -0.1  754  278           
15 30.06.12 330 (СЗ) 10 км    8/3 1000 м кучево-дожд., средняя, верхняя 
[Cb calv|Ac trans|Ci fib]
+23.3 +9.9 43 +24  1013.5  -0.2  754  278           
18 30.06.12 280 (З) 10 км    8/3 1000 м кучево-дожд., средняя 
[Cb calv|Ac trans]
+22.1 +8.1 41 +22  1014.4  0.8  754  280    +25.3       
21 30.06.12 350 (С) 10 км    8/1 1000 м кучево-дожд., средняя 
[Cb calv|Ac trans]
+19.9 +8.7 48 +21  1014.7  0.3  755  282           
00 01.07.12 350 (С) 10 км  в посл. час ливневой дождь  8/1 1000 м кучево-дожд., средняя 
[Cb calv|Ac trans]
+17.8 +9.3 57 +18  1014.5  -0.3  754  284           
03 01.07.12 350 (С) 10 км    8/0 средняя, верхняя 
[Ac trans|Ci fib]
+17.1 +9.7 62 +19  1015.5  755  285           
06 01.07.12 010 (С) 10 км    6/0 верхняя 
[Ci fib]
+22.1 +10.9 49 +24  1015.5  0.1  755  280  +16.5    0.0     
09 01.07.12 090 (В) 10 км  слаб. ливневой дождь  9/5 1200 м кучево-дожд., средняя 
[Cb calv|Ac trans]
+22.6 +11.7 50 +26  1015.6  -0.1  755  279           
12 01.07.12 360 (С) 10 км  {ливн. осадки}  8/5 1200 м кучево-дожд., средняя 
[Cb calv|Ac trans]
+26.4 +9.8 35 +27  1015.2  -0.2  755  276           
15 01.07.12 140 (ЮВ) 10 км  {ливн. осадки}  9/5 1200 м кучево-дожд., средняя 
[Cb calv|Ac trans]
+21.5 +10.7 50 +23  1016.8  1.4  756  280           
18 01.07.12 360 (С) 10 км  {ливн. осадки}  9/5 1200 м кучево-дожд., средняя 
[Cb calv|Ac trans]
+20.4 +11.7 57 +24  1017.6  0.7  757  282    +26.9  0.0     
21 01.07.12 350 (С) 10 км    3/0 средняя 
[Ac trans]
+19.3 +11.2 59 +23  1017.2  -0.5  756  283           
00 02.07.12 350 (С) 10 км    3/0 средняя 
[Ac trans]
+18.7 +10.5 59 +21  1017  -0.1  756  283           
03 02.07.12 010 (С) 10 км    8/0 средняя, верхняя 
[Ac trans|Ci fib]
+19.1 +11.1 60 +22  1017.8  0.7  757  283           
Время (UTC), дата Ветер
(°,м/с) 
Видим.   Явления Облачность Т
(°С)
Тd
(°С)
f(%) Тe
(°С)
Pmin
(гПа)
dP
(гПа)
Po
(мм)
O2
(г/м3)
Тmin Tmax R s Состояние
почвы